Regional Weather Roundup
Issued by NWS Sioux Falls, SD

Home | Current Version | Previous Version | Text Only | Print | Product List | Glossary On
Versions: 1 2 3 4 5 6 7 8 9 10 11 12 13 14 15 16 17 18 19 20 21 22 23 24 25 26 27 28 29 30 31 32 33 34 35 36 37 38 39 40 41 42 43 44 45 46 47 48 49 50
000
ASUS43 KFSD 230210
RWRFSD

WEATHER ROUNDUP FOR SE SOUTH DAKOTA/SW MINNESOTA/NW IOWA
NATIONAL WEATHER SERVICE SIOUX FALLS SD
900 PM CDT MON SEP 22 2014

NOTE: "FAIR" INDICATES FEW OR NO CLOUDS BELOW 12,000 FEET WITH NO
SIGNIFICANT WEATHER AND OR OBSTRUCTIONS TO VISIBILITY.


SDZ038>040-050-052>070-230300-
SOUTHEAST SOUTH DAKOTA

CITY           SKY/WX    TMP DP  RH WIND       PRES   REMARKS
CHAMBERLAIN    CLOUDY    65  50  58 S10       30.05S
HURON          PTCLDY    66  49  54 S10       30.07R
MADISON        FAIR      59  48  67 S7        30.13S
MITCHELL       MOCLDY    67  51  56 S13       30.10R
SIOUX FALLS    MOCLDY    64  49  57 S12       30.14R
WINNER         FAIR      65  52  62 S20G30    30.05S
YANKTON        MOCLDY    63  52  67 SE7       30.13S
$$

MNZ071-072-080-081-089-090-097-098-230300-
SOUTHWEST MINNESOTA

CITY           SKY/WX    TMP DP  RH WIND       PRES   REMARKS
FAIRMONT       CLEAR     55  46  71 S6        30.18S
JACKSON        CLEAR     55  48  76 S6        30.19S
LUVERNE        PTCLDY    55  46  71 CALM      30.16S
MARSHALL       CLEAR     57  46  67 SW8       30.13S
MONTEVIDEO     CLEAR     61  48  63 SW5       30.13S
PIPESTONE      PTCLDY    61  46  59 S8        30.15S
REDWOOD FALLS  CLEAR     59  49  69 S8        30.14R
TRACY          CLEAR     60  49  67 CALM      30.16R
WINDOM         CLEAR     61  48  63 S6        30.17S
WORTHINGTON    PTCLDY    57  48  72 S6        30.18S
$$

IAZ001>003-012>014-020>022-031-032-NEZ013-014-SDZ071-230300-
NORTHWEST IOWA

CITY           SKY/WX    TMP DP  RH WIND       PRES   REMARKS
CHEROKEE       MOCLDY    57  53  85 CALM      30.18S
DENISON        MOCLDY    57  54  88 E7        30.18S
ESTHERVILLE    CLEAR     55  49  80 S7        30.18S
LE MARS          N/A     61  52  72 SE7       30.17S
ORANGE CITY    CLOUDY    61  52  72 S5        30.17S
SHELDON        MOCLDY    55  50  82 SE6       30.16S
SIOUX CITY     MOCLDY    64  51  62 SE7       30.16S
SPENCER        PTCLDY    55  50  83 S6        30.18S
$$

ABBREVIATIONS USED IN REMARKS
   TC - TEMPERATURE IN CELSIUS
  WCI - WIND CHILL INDEX
   HX - HEAT INDEX
  VSB - VISIBILITY



USA.gov is the U.S. government's official web portal to all federal, state and local government web resources and services.